Terug naar catalogus

DELTA 1 DEB

ActiefPO
NORAD 26841·DEBRIS·🇺🇸 United States

Gelanceerd Jun 12, 1975 vanaf Vandenberg Space Force Base

Loading…

Volgende Passages (komende 24 uur)

TLE

VersSource: Space-Track

Epoch: Sep 14, 2026, 09:22 UTC

1 26841U 75052KV  26257.39077944  .00000678  00000-0  15540-2 0  9993
2 26841  99.9043 220.7548 0509194 335.8746 176.3565 12.89650202582596

Volg DELTA 1 DEB in realtime met AllMySat

Download on the App Store